• In India
  • List of Countries
  • For 7 days
  • Water Temperature
  • Satellite Maps
  • Weather Map
  • Weather Widgets
  • user-avatar
    Login

    Hourly Weather Serowe

    Today, 20 January, Saturday

    Time Temperature Precipitation Wind Pressure Humidity
    00:00 +22°C° 0 mm 4 mps 665 mmHg 29%
    01:00 +22°C° 0 mm 4 mps 665 mmHg 33%
    02:00 +21°C° 0 mm 4 mps 665 mmHg 37%
    03:00 +21°C° 0 mm 4 mps 665 mmHg 41%
    04:00 +20°C° 0 mm 4 mps 665 mmHg 45%
    05:00 +19°C° 0 mm 3 mps 665 mmHg 49%
    06:00 +21°C° 0 mm 4 mps 666 mmHg 47%
    07:00 +22°C° 0 mm 5 mps 666 mmHg 44%
    08:00 +25°C° 0 mm 5 mps 667 mmHg 40%
    09:00 +27°C° 0 mm 5 mps 667 mmHg 33%
    10:00 +30°C° 0 mm 5 mps 667 mmHg 27%
    11:00 +33°C° 0 mm 4 mps 668 mmHg 20%
    12:00 +34°C° 0 mm 4 mps 667 mmHg 18%
    13:00 +35°C° 0 mm 4 mps 667 mmHg 16%
    14:00 +37°C° 0 mm 4 mps 666 mmHg 13%
    15:00 +36°C° 0 mm 4 mps 666 mmHg 13%
    16:00 +36°C° 0 mm 4 mps 665 mmHg 14%
    17:00 +36°C° 0 mm 4 mps 665 mmHg 14%
    18:00 +34°C° 0 mm 4 mps 665 mmHg 17%
    19:00 +32°C° 0 mm 4 mps 665 mmHg 20%
    20:00 +28°C° 0 mm 3 mps 664 mmHg 23%
    21:00 +28°C° 0 mm 3 mps 665 mmHg 24%
    22:00 +27°C° 0 mm 3 mps 665 mmHg 25%
    23:00 +26°C° 0 mm 3 mps 665 mmHg 26%

    Tomorrow, 21 January, Sunday

    Time Temperature Precipitation Wind Pressure Humidity
    00:00 +26°C° 0 mm 4 mps 665 mmHg 27%
    01:00 +25°C° 0 mm 5 mps 665 mmHg 29%
    02:00 +25°C° 0 mm 5 mps 665 mmHg 30%
    03:00 +23°C° 0 mm 5 mps 665 mmHg 33%
    04:00 +23°C° 0 mm 5 mps 665 mmHg 36%
    05:00 +22°C° 0 mm 6 mps 665 mmHg 39%
    06:00 +23°C° 0 mm 6 mps 666 mmHg 37%
    07:00 +24°C° 0 mm 7 mps 666 mmHg 36%
    08:00 +26°C° 0 mm 7 mps 667 mmHg 35%
    09:00 +29°C° 0 mm 7 mps 667 mmHg 31%
    10:00 +32°C° 0 mm 7 mps 668 mmHg 27%
    11:00 +34°C° 0 mm 6 mps 668 mmHg 23%
    12:00 +35°C° 0 mm 6 mps 668 mmHg 20%
    13:00 +36°C° 0 mm 6 mps 667 mmHg 18%
    14:00 +39°C° 0 mm 5 mps 667 mmHg 16%
    15:00 +37°C° 0 mm 5 mps 666 mmHg 16%
    16:00 +37°C° 0 mm 5 mps 666 mmHg 16%
    17:00 +37°C° 0 mm 5 mps 665 mmHg 16%
    18:00 +35°C° 0 mm 5 mps 665 mmHg 20%
    19:00 +33°C° 0 mm 5 mps 665 mmHg 23%
    20:00 +30°C° 0 mm 5 mps 665 mmHg 27%
    21:00 +29°C° 0 mm 6 mps 665 mmHg 28%
    22:00 +28°C° 0 mm 6 mps 666 mmHg 30%
    23:00 +27°C° 0 mm 6 mps 666 mmHg 31%

    Day after tomorrow, 22 January, Monday

    Time Temperature Precipitation Wind Pressure Humidity
    00:00 +26°C° 0 mm 6 mps 666 mmHg 34%
    01:00 +24°C° 0 mm 6 mps 665 mmHg 36%
    02:00 +24°C° 0 mm 7 mps 665 mmHg 39%
    03:00 +23°C° 0 mm 6 mps 665 mmHg 41%
    04:00 +22°C° 0 mm 6 mps 665 mmHg 43%
    05:00 +22°C° 0 mm 5 mps 665 mmHg 45%
    06:00 +22°C° 0 mm 6 mps 666 mmHg 44%
    07:00 +23°C° 0 mm 7 mps 666 mmHg 43%
    08:00 +24°C° 0 mm 7 mps 667 mmHg 42%
    09:00 +27°C° 0 mm 7 mps 667 mmHg 38%
    10:00 +29°C° 0 mm 7 mps 667 mmHg 33%
    11:00 +33°C° 0 mm 7 mps 668 mmHg 29%
    12:00 +34°C° 0 mm 6 mps 667 mmHg 26%
    13:00 +36°C° 0 mm 5 mps 666 mmHg 22%
    14:00 +37°C° 0 mm 4 mps 666 mmHg 18%
    15:00 +37°C° 0 mm 4 mps 665 mmHg 18%
    16:00 +37°C° 0 mm 4 mps 665 mmHg 17%
    17:00 +37°C° 0 mm 3 mps 664 mmHg 17%
    18:00 +35°C° 0 mm 3 mps 664 mmHg 20%
    19:00 +33°C° 0 mm 3 mps 664 mmHg 23%
    20:00 +30°C° 0 mm 3 mps 664 mmHg 26%
    21:00 +29°C° 0 mm 4 mps 664 mmHg 31%
    22:00 +28°C° 0 mm 4 mps 664 mmHg 36%
    23:00 +27°C° 0 mm 4 mps 664 mmHg 40%

    23 January, Tuesday

    Time Temperature Precipitation Wind Pressure Humidity
    00:00 +26°C° 0 mm 4 mps 664 mmHg 44%
    01:00 +25°C° 0 mm 4 mps 664 mmHg 47%
    02:00 +25°C° 0 mm 4 mps 664 mmHg 50%
    03:00 +23°C° 0 mm 4 mps 664 mmHg 52%
    04:00 +23°C° 0 mm 4 mps 664 mmHg 54%
    05:00 +22°C° 0 mm 4 mps 664 mmHg 56%
    06:00 +23°C° 0 mm 5 mps 665 mmHg 52%
    07:00 +26°C° 0 mm 5 mps 665 mmHg 48%
    08:00 +27°C° 0 mm 6 mps 666 mmHg 44%
    09:00 +29°C° 0 mm 5 mps 666 mmHg 39%
    10:00 +32°C° 0 mm 5 mps 666 mmHg 35%
    11:00 +34°C° 0 mm 4 mps 666 mmHg 30%
    12:00 +35°C° 0 mm 4 mps 666 mmHg 27%
    13:00 +36°C° 0 mm 3 mps 665 mmHg 25%
    14:00 +37°C° 0 mm 3 mps 664 mmHg 23%
    15:00 +36°C° 0 mm 3 mps 664 mmHg 23%
    16:00 +36°C° 0 mm 2 mps 663 mmHg 24%
    17:00 +35°C° 0 mm 2 mps 663 mmHg 25%
    18:00 +34°C° 0 mm 2 mps 663 mmHg 28%
    19:00 +31°C° 0 mm 2 mps 663 mmHg 31%
    20:00 +30°C° 0 mm 1 mps 663 mmHg 34%
    21:00 +29°C° 0.7 mm 1 mps 663 mmHg 39%
    22:00 +28°C° 0.7 mm 1 mps 663 mmHg 44%
    23:00 +26°C° 0.7 mm 1 mps 664 mmHg 49%

    24 January, Wednesday

    Time Temperature Precipitation Wind Pressure Humidity
    00:00 +26°C° 0.5 mm 1 mps 663 mmHg 51%
    01:00 +25°C° 0.5 mm 2 mps 663 mmHg 53%
    02:00 +25°C° 0.5 mm 2 mps 662 mmHg 55%
    03:00 +24°C° 0.3 mm 2 mps 662 mmHg 55%
    04:00 +24°C° 0.3 mm 2 mps 663 mmHg 56%
    05:00 +22°C° 0.3 mm 3 mps 663 mmHg 56%
    06:00 +24°C° 0.3 mm 3 mps 664 mmHg 53%
    07:00 +25°C° 0.3 mm 3 mps 664 mmHg 51%
    08:00 +26°C° 0.3 mm 3 mps 665 mmHg 48%
    09:00 +28°C° 0.2 mm 2 mps 665 mmHg 44%
    10:00 +30°C° 0.2 mm 2 mps 666 mmHg 41%
    11:00 +32°C° 0.2 mm 2 mps 666 mmHg 37%
    12:00 +34°C° 0 mm 2 mps 666 mmHg 34%
    13:00 +34°C° 0 mm 1 mps 665 mmHg 31%
    14:00 +36°C° 0 mm 1 mps 665 mmHg 27%
    15:00 +35°C° 0.7 mm 2 mps 664 mmHg 34%
    16:00 +33°C° 0.7 mm 3 mps 664 mmHg 40%
    17:00 +30°C° 0.7 mm 4 mps 663 mmHg 46%
    18:00 +28°C° 3.4 mm 5 mps 663 mmHg 55%
    19:00 +26°C° 3.4 mm 5 mps 664 mmHg 64%
    20:00 +23°C° 3.4 mm 6 mps 664 mmHg 72%
    21:00 +23°C° 0.5 mm 5 mps 664 mmHg 71%
    22:00 +23°C° 0.5 mm 4 mps 664 mmHg 69%
    23:00 +24°C° 0.5 mm 3 mps 664 mmHg 68%

    25 January, Thursday

    Time Temperature Precipitation Wind Pressure Humidity
    00:00 +24°C° 0 mm 2 mps 664 mmHg 69%
    01:00 +24°C° 0 mm 2 mps 663 mmHg 70%
    02:00 +23°C° 0 mm 1 mps 663 mmHg 71%
    03:00 +23°C° 0.2 mm 2 mps 663 mmHg 72%
    04:00 +23°C° 0.2 mm 2 mps 663 mmHg 74%
    05:00 +21°C° 0.2 mm 2 mps 664 mmHg 76%
    06:00 +22°C° 0.1 mm 3 mps 664 mmHg 73%
    07:00 +24°C° 0.1 mm 3 mps 665 mmHg 70%
    08:00 +23°C° 0.1 mm 4 mps 666 mmHg 68%
    09:00 +26°C° 0 mm 4 mps 666 mmHg 60%
    10:00 +28°C° 0 mm 4 mps 666 mmHg 53%
    11:00 +30°C° 0 mm 4 mps 667 mmHg 46%
    12:00 +31°C° 0.1 mm 3 mps 666 mmHg 42%
    13:00 +32°C° 0.1 mm 2 mps 666 mmHg 38%
    14:00 +33°C° 0.1 mm 1 mps 666 mmHg 34%
    15:00 +32°C° 0.1 mm 2 mps 666 mmHg 38%
    16:00 +31°C° 0.1 mm 3 mps 665 mmHg 42%
    17:00 +30°C° 0.1 mm 3 mps 665 mmHg 45%
    18:00 +28°C° 0.5 mm 4 mps 665 mmHg 53%
    19:00 +27°C° 0.5 mm 4 mps 665 mmHg 60%
    20:00 +25°C° 0.5 mm 5 mps 665 mmHg 67%
    21:00 +23°C° 0.2 mm 4 mps 665 mmHg 70%
    22:00 +23°C° 0.2 mm 4 mps 665 mmHg 72%
    23:00 +22°C° 0.2 mm 3 mps 666 mmHg 74%
    Show more